owner,sensor,date,latitude,longitude,vertical_datum,sea_water_speed,direction_of_sea_water_velocity,upward_sea_water_velocity,qcFlag
Talos,ioos:station:wmo:42940:1,2024-04-01T00:03:00Z,28.4451,-89.0435,10.0,70.6,11144222
Talos,ioos:station:wmo:42940:1,2024-04-01T00:13:00Z,28.4451,-89.0435,10.0,70.9,11144222
Talos,ioos:station:wmo:42940:1,2024-04-01T00:23:00Z,28.4451,-89.0435,10.0,70.7,11144222
Talos,ioos:station:wmo:42940:1,2024-04-01T00:33:00Z,28.4451,-89.0435,10.0,71.8,11144222
Talos,ioos:station:wmo:42940:1,2024-04-01T00:43:00Z,28.4451,-89.0435,10.0,71.1,11144222
Talos,ioos:station:wmo:42940:1,2024-04-01T00:53:00Z,28.4451,-89.0435,10.0,69.9,11144222
Talos,ioos:station:wmo:42940:1,2024-04-01T01:03:00Z,28.4451,-89.0435,10.0,70.6,11144222
Talos,ioos:station:wmo:42940:1,2024-04-01T01:13:00Z,28.4451,-89.0435,10.0,70.7,11144222
Talos,ioos:station:wmo:42940:1,2024-04-01T01:23:00Z,28.4451,-89.0435,10.0,67.8,11144222
Talos,ioos:station:wmo:42940:1,2024-04-01T01:33:00Z,28.4451,-89.0435,10.0,71.6,11144222
Talos,ioos:station:wmo:42940:1,2024-04-01T01:43:00Z,28.4451,-89.0435,10.0,69.5,11144222
Talos,ioos:station:wmo:42940:1,2024-04-01T01:53:00Z,28.4451,-89.0435,10.0,71.1,11144222
Talos,ioos:station:wmo:42940:1,2024-04-01T02:03:00Z,28.4451,-89.0435,10.0,70.4,11144222
Talos,ioos:station:wmo:42940:1,2024-04-01T02:13:00Z,28.4451,-89.0435,10.0,72.3,11144222
Talos,ioos:station:wmo:42940:1,2024-04-01T02:23:00Z,28.4451,-89.0435,10.0,71.8,11144222
Talos,ioos:station:wmo:42940:1,2024-04-01T02:33:00Z,28.4451,-89.0435,10.0,66.6,11144222
Talos,ioos:station:wmo:42940:1,2024-04-01T02:43:00Z,28.4451,-89.0435,10.0,69.9,11144222
Talos,ioos:station:wmo:42940:1,2024-04-01T02:53:00Z,28.4451,-89.0435,10.0,69.8,11144222
Talos,ioos:station:wmo:42940:1,2024-04-01T03:03:00Z,28.4451,-89.0435,10.0,68.5,11144222
Talos,ioos:station:wmo:42940:1,2024-04-01T03:13:00Z,28.4451,-89.0435,10.0,70.2,11144222
Talos,ioos:station:wmo:42940:1,2024-04-01T03:23:00Z,28.4451,-89.0435,10.0,70.4,11144222
Talos,ioos:station:wmo:42940:1,2024-04-01T03:33:00Z,28.4451,-89.0435,10.0,70.6,11144222
Talos,ioos:station:wmo:42940:1,2024-04-01T03:43:00Z,28.4451,-89.0435,10.0,69.6,11144222
Talos,ioos:station:wmo:42940:1,2024-04-01T03:53:00Z,28.4451,-89.0435,10.0,69.3,11144222
Talos,ioos:station:wmo:42940:1,2024-04-01T04:03:00Z,28.4451,-89.0435,10.0,69.6,11144222
Talos,ioos:station:wmo:42940:1,2024-04-01T04:13:00Z,28.4451,-89.0435,10.0,72.2,11144222
Talos,ioos:station:wmo:42940:1,2024-04-01T04:23:00Z,28.4451,-89.0435,10.0,71.7,11144222
Talos,ioos:station:wmo:42940:1,2024-04-01T04:33:00Z,28.4451,-89.0435,10.0,72.9,11144222
Talos,ioos:station:wmo:42940:1,2024-04-01T04:43:00Z,28.4451,-89.0435,10.0,69.4,11144222
Talos,ioos:station:wmo:42940:1,2024-04-01T04:53:00Z,28.4451,-89.0435,10.0,71.1,11144222
Talos,ioos:station:wmo:42940:1,2024-04-01T05:03:00Z,28.4451,-89.0435,10.0,71.3,11144222
Talos,ioos:station:wmo:42940:1,2024-04-01T05:13:00Z,28.4451,-89.0435,10.0,71.3,11144222
Talos,ioos:station:wmo:42940:1,2024-04-01T05:23:00Z,28.4451,-89.0435,10.0,70.9,11144222
Talos,ioos:station:wmo:42940:1,2024-04-01T05:33:00Z,28.4451,-89.0435,10.0,70.3,11144222
Talos,ioos:station:wmo:42940:1,2024-04-01T05:43:00Z,28.4451,-89.0435,10.0,70.7,11144222
Talos,ioos:station:wmo:42940:1,2024-04-01T05:53:00Z,28.4451,-89.0435,10.0,70.2,11144222
Talos,ioos:station:wmo:42940:1,2024-04-01T06:03:00Z,28.4451,-89.0435,10.0,69.5,11144222
Talos,ioos:station:wmo:42940:1,2024-04-01T06:13:00Z,28.4451,-89.0435,10.0,70.7,11144222
Talos,ioos:station:wmo:42940:1,2024-04-01T06:23:00Z,28.4451,-89.0435,10.0,71.5,11144222
Talos,ioos:station:wmo:42940:1,2024-04-01T06:33:00Z,28.4451,-89.0435,10.0,68.6,11144222
Talos,ioos:station:wmo:42940:1,2024-04-01T06:43:00Z,28.4451,-89.0435,10.0,69.3,11144222
Talos,ioos:station:wmo:42940:1,2024-04-01T06:53:00Z,28.4451,-89.0435,10.0,71.6,11144222
Talos,ioos:station:wmo:42940:1,2024-04-01T07:03:00Z,28.4451,-89.0435,10.0,71.5,11144222
Talos,ioos:station:wmo:42940:1,2024-04-01T07:13:00Z,28.4451,-89.0435,10.0,71.1,11144222
Talos,ioos:station:wmo:42940:1,2024-04-01T07:23:00Z,28.4451,-89.0435,10.0,70.6,11144222
Talos,ioos:station:wmo:42940:1,2024-04-01T07:33:00Z,28.4451,-89.0435,10.0,71.6,11144222
Talos,ioos:station:wmo:42940:1,2024-04-01T07:43:00Z,28.4451,-89.0435,10.0,69.5,11144222
Talos,ioos:station:wmo:42940:1,2024-04-01T07:53:00Z,28.4451,-89.0435,10.0,69.8,11144222
Talos,ioos:station:wmo:42940:1,2024-04-01T08:03:00Z,28.4451,-89.0435,10.0,68.9,11144222
Talos,ioos:station:wmo:42940:1,2024-04-01T08:13:00Z,28.4451,-89.0435,10.0,69.2,11144222
Talos,ioos:station:wmo:42940:1,2024-04-01T08:23:00Z,28.4451,-89.0435,10.0,69.2,11144222
Talos,ioos:station:wmo:42940:1,2024-04-01T08:33:00Z,28.4451,-89.0435,10.0,69.0,11144222
Talos,ioos:station:wmo:42940:1,2024-04-01T08:43:00Z,28.4451,-89.0435,10.0,68.0,11144222
Talos,ioos:station:wmo:42940:1,2024-04-01T08:53:00Z,28.4451,-89.0435,10.0,68.8,11144222
Talos,ioos:station:wmo:42940:1,2024-04-01T09:03:00Z,28.4451,-89.0435,10.0,69.8,11144222
Talos,ioos:station:wmo:42940:1,2024-04-01T09:13:00Z,28.4451,-89.0435,10.0,67.5,11144222
Talos,ioos:station:wmo:42940:1,2024-04-01T09:23:00Z,28.4451,-89.0435,10.0,67.9,11144222
Talos,ioos:station:wmo:42940:1,2024-04-01T09:33:00Z,28.4451,-89.0435,10.0,67.0,11144222
Talos,ioos:station:wmo:42940:1,2024-04-01T09:43:00Z,28.4451,-89.0435,10.0,70.9,11144222
Talos,ioos:station:wmo:42940:1,2024-04-01T09:53:00Z,28.4451,-89.0435,10.0,67.0,11144222
Talos,ioos:station:wmo:42940:1,2024-04-01T10:03:00Z,28.4451,-89.0435,10.0,66.9,11144222
Talos,ioos:station:wmo:42940:1,2024-04-01T10:13:00Z,28.4451,-89.0435,10.0,68.7,11144222
Talos,ioos:station:wmo:42940:1,2024-04-01T10:23:00Z,28.4451,-89.0435,10.0,69.9,11144222
Talos,ioos:station:wmo:42940:1,2024-04-01T10:33:00Z,28.4451,-89.0435,10.0,66.9,11144222
Talos,ioos:station:wmo:42940:1,2024-04-01T10:43:00Z,28.4451,-89.0435,10.0,66.7,11144222
Talos,ioos:station:wmo:42940:1,2024-04-01T10:53:00Z,28.4451,-89.0435,10.0,65.2,11144222
Talos,ioos:station:wmo:42940:1,2024-04-01T11:03:00Z,28.4451,-89.0435,10.0,67.0,11144222
Talos,ioos:station:wmo:42940:1,2024-04-01T11:13:00Z,28.4451,-89.0435,10.0,68.3,11144222
Talos,ioos:station:wmo:42940:1,2024-04-01T11:23:00Z,28.4451,-89.0435,10.0,66.8,11144222
Talos,ioos:station:wmo:42940:1,2024-04-01T11:33:00Z,28.4451,-89.0435,10.0,70.0,11144222
Talos,ioos:station:wmo:42940:1,2024-04-01T11:43:00Z,28.4451,-89.0435,10.0,69.6,11144222
Talos,ioos:station:wmo:42940:1,2024-04-01T11:53:00Z,28.4451,-89.0435,10.0,70.1,11144222
Talos,ioos:station:wmo:42940:1,2024-04-01T12:03:00Z,28.4451,-89.0435,10.0,69.8,11144222
Talos,ioos:station:wmo:42940:1,2024-04-01T12:13:00Z,28.4451,-89.0435,10.0,70.3,11144222
Talos,ioos:station:wmo:42940:1,2024-04-01T12:23:00Z,28.4451,-89.0435,10.0,70.1,11144222
Talos,ioos:station:wmo:42940:1,2024-04-01T12:33:00Z,28.4451,-89.0435,10.0,69.8,11144222
Talos,ioos:station:wmo:42940:1,2024-04-01T12:43:00Z,28.4451,-89.0435,10.0,69.3,11144222
Talos,ioos:station:wmo:42940:1,2024-04-01T12:53:00Z,28.4451,-89.0435,10.0,70.0,11144222
Talos,ioos:station:wmo:42940:1,2024-04-01T13:03:00Z,28.4451,-89.0435,10.0,70.0,11144222
Talos,ioos:station:wmo:42940:1,2024-04-01T13:13:00Z,28.4451,-89.0435,10.0,69.5,11144222
Talos,ioos:station:wmo:42940:1,2024-04-01T13:23:00Z,28.4451,-89.0435,10.0,69.7,11144222
Talos,ioos:station:wmo:42940:1,2024-04-01T13:33:00Z,28.4451,-89.0435,10.0,69.6,11144222
Talos,ioos:station:wmo:42940:1,2024-04-01T13:43:00Z,28.4451,-89.0435,10.0,69.2,11144222
Talos,ioos:station:wmo:42940:1,2024-04-01T13:53:00Z,28.4451,-89.0435,10.0,69.8,11144222
Talos,ioos:station:wmo:42940:1,2024-04-01T14:03:00Z,28.4451,-89.0435,10.0,69.8,11144222
Talos,ioos:station:wmo:42940:1,2024-04-01T14:13:00Z,28.4451,-89.0435,10.0,69.9,11144222
Talos,ioos:station:wmo:42940:1,2024-04-01T14:23:00Z,28.4451,-89.0435,10.0,69.2,11144222
Talos,ioos:station:wmo:42940:1,2024-04-01T14:33:00Z,28.4451,-89.0435,10.0,69.8,11144222
Talos,ioos:station:wmo:42940:1,2024-04-01T14:43:00Z,28.4451,-89.0435,10.0,69.5,11144222
Talos,ioos:station:wmo:42940:1,2024-04-01T14:53:00Z,28.4451,-89.0435,10.0,69.5,11144222
Talos,ioos:station:wmo:42940:1,2024-04-01T15:03:00Z,28.4451,-89.0435,10.0,69.4,11144222
Talos,ioos:station:wmo:42940:1,2024-04-01T15:13:00Z,28.4451,-89.0435,10.0,69.2,11144222
Talos,ioos:station:wmo:42940:1,2024-04-01T15:23:00Z,28.4451,-89.0435,10.0,69.1,11144222
Talos,ioos:station:wmo:42940:1,2024-04-01T15:33:00Z,28.4451,-89.0435,10.0,69.4,11144222
Talos,ioos:station:wmo:42940:1,2024-04-01T15:43:00Z,28.4451,-89.0435,10.0,69.7,11144222
Talos,ioos:station:wmo:42940:1,2024-04-01T15:53:00Z,28.4451,-89.0435,10.0,69.1,11144222
Talos,ioos:station:wmo:42940:1,2024-04-01T16:03:00Z,28.4451,-89.0435,10.0,68.6,11144222
Talos,ioos:station:wmo:42940:1,2024-04-01T16:13:00Z,28.4451,-89.0435,10.0,68.7,11144222
Talos,ioos:station:wmo:42940:1,2024-04-01T16:23:00Z,28.4451,-89.0435,10.0,67.4,11144222
Talos,ioos:station:wmo:42940:1,2024-04-01T16:33:00Z,28.4451,-89.0435,10.0,67.4,11144222
Talos,ioos:station:wmo:42940:1,2024-04-01T16:43:00Z,28.4451,-89.0435,10.0,70.2,11144222
Talos,ioos:station:wmo:42940:1,2024-04-01T16:53:00Z,28.4451,-89.0435,10.0,69.8,11144222
Talos,ioos:station:wmo:42940:1,2024-04-01T17:03:00Z,28.4451,-89.0435,10.0,70.1,11144222
Talos,ioos:station:wmo:42940:1,2024-04-01T17:13:00Z,28.4451,-89.0435,10.0,67.2,11144222
Talos,ioos:station:wmo:42940:1,2024-04-01T17:23:00Z,28.4451,-89.0435,10.0,68.9,11144222
Talos,ioos:station:wmo:42940:1,2024-04-01T17:33:00Z,28.4451,-89.0435,10.0,70.1,11144222
Talos,ioos:station:wmo:42940:1,2024-04-01T17:43:00Z,28.4451,-89.0435,10.0,70.2,11144222
Talos,ioos:station:wmo:42940:1,2024-04-01T17:53:00Z,28.4451,-89.0435,10.0,70.0,11144222
Talos,ioos:station:wmo:42940:1,2024-04-01T18:03:00Z,28.4451,-89.0435,10.0,69.3,11144222
Talos,ioos:station:wmo:42940:1,2024-04-01T18:13:00Z,28.4451,-89.0435,10.0,69.7,11144222
Talos,ioos:station:wmo:42940:1,2024-04-01T18:23:00Z,28.4451,-89.0435,10.0,70.7,11144222
Talos,ioos:station:wmo:42940:1,2024-04-01T18:33:00Z,28.4451,-89.0435,10.0,70.4,11144222
Talos,ioos:station:wmo:42940:1,2024-04-01T18:43:00Z,28.4451,-89.0435,10.0,70.7,11144222
Talos,ioos:station:wmo:42940:1,2024-04-01T18:53:00Z,28.4451,-89.0435,10.0,70.5,11144222
Talos,ioos:station:wmo:42940:1,2024-04-01T19:03:00Z,28.4451,-89.0435,10.0,70.7,11144222
Talos,ioos:station:wmo:42940:1,2024-04-01T19:13:00Z,28.4451,-89.0435,10.0,70.5,11144222
Talos,ioos:station:wmo:42940:1,2024-04-01T19:23:00Z,28.4451,-89.0435,10.0,70.7,11144222
Talos,ioos:station:wmo:42940:1,2024-04-01T19:33:00Z,28.4451,-89.0435,10.0,70.5,11144222
Talos,ioos:station:wmo:42940:1,2024-04-01T19:43:00Z,28.4451,-89.0435,10.0,70.8,11144222
Talos,ioos:station:wmo:42940:1,2024-04-01T19:53:00Z,28.4451,-89.0435,10.0,70.6,11144222
Talos,ioos:station:wmo:42940:1,2024-04-01T20:03:00Z,28.4451,-89.0435,10.0,70.1,11144222
Talos,ioos:station:wmo:42940:1,2024-04-01T20:13:00Z,28.4451,-89.0435,10.0,70.5,11144222
Talos,ioos:station:wmo:42940:1,2024-04-01T20:23:00Z,28.4451,-89.0435,10.0,70.4,11144222
Talos,ioos:station:wmo:42940:1,2024-04-01T20:33:00Z,28.4451,-89.0435,10.0,70.6,11144222
Talos,ioos:station:wmo:42940:1,2024-04-01T20:43:00Z,28.4451,-89.0435,10.0,70.8,11144222
Talos,ioos:station:wmo:42940:1,2024-04-01T20:53:00Z,28.4451,-89.0435,10.0,70.4,11144222
Talos,ioos:station:wmo:42940:1,2024-04-01T21:03:00Z,28.4451,-89.0435,10.0,70.5,11144222
Talos,ioos:station:wmo:42940:1,2024-04-01T21:13:00Z,28.4451,-89.0435,10.0,70.0,11144222
Talos,ioos:station:wmo:42940:1,2024-04-01T21:23:00Z,28.4451,-89.0435,10.0,70.5,11144222
Talos,ioos:station:wmo:42940:1,2024-04-01T21:33:00Z,28.4451,-89.0435,10.0,70.0,11144222
Talos,ioos:station:wmo:42940:1,2024-04-01T21:43:00Z,28.4451,-89.0435,10.0,70.1,11144222
Talos,ioos:station:wmo:42940:1,2024-04-01T21:53:00Z,28.4451,-89.0435,10.0,70.3,11144222
Talos,ioos:station:wmo:42940:1,2024-04-01T22:03:00Z,28.4451,-89.0435,10.0,70.1,11144222
Talos,ioos:station:wmo:42940:1,2024-04-01T22:13:00Z,28.4451,-89.0435,10.0,69.4,11144222
Talos,ioos:station:wmo:42940:1,2024-04-01T22:23:00Z,28.4451,-89.0435,10.0,70.7,11144222
Talos,ioos:station:wmo:42940:1,2024-04-01T22:33:00Z,28.4451,-89.0435,10.0,70.4,11144222
Talos,ioos:station:wmo:42940:1,2024-04-01T22:43:00Z,28.4451,-89.0435,10.0,70.5,11144222
Talos,ioos:station:wmo:42940:1,2024-04-01T22:53:00Z,28.4451,-89.0435,10.0,70.3,11144222
Talos,ioos:station:wmo:42940:1,2024-04-01T23:03:00Z,28.4451,-89.0435,10.0,70.5,11144222
Talos,ioos:station:wmo:42940:1,2024-04-01T23:13:00Z,28.4451,-89.0435,10.0,70.2,11144222
Talos,ioos:station:wmo:42940:1,2024-04-01T23:23:00Z,28.4451,-89.0435,10.0,70.7,11144222
Talos,ioos:station:wmo:42940:1,2024-04-01T23:33:00Z,28.4451,-89.0435,10.0,70.6,11144222
Talos,ioos:station:wmo:42940:1,2024-04-01T23:43:00Z,28.4451,-89.0435,10.0,70.3,11144222
Talos,ioos:station:wmo:42940:1,2024-04-01T23:53:00Z,28.4451,-89.0435,10.0,70.4,11144222
Talos,ioos:station:wmo:42940:1,2024-04-02T00:03:00Z,28.4451,-89.0435,10.0,70.5,11144222
Talos,ioos:station:wmo:42940:1,2024-04-02T00:13:00Z,28.4451,-89.0435,10.0,70.7,11144222
Talos,ioos:station:wmo:42940:1,2024-04-02T00:23:00Z,28.4451,-89.0435,10.0,70.6,11144222
Talos,ioos:station:wmo:42940:1,2024-04-02T00:33:00Z,28.4451,-89.0435,10.0,69.9,11144222
Talos,ioos:station:wmo:42940:1,2024-04-02T00:43:00Z,28.4451,-89.0435,10.0,70.1,11144222
Talos,ioos:station:wmo:42940:1,2024-04-02T00:53:00Z,28.4451,-89.0435,10.0,70.6,11144222
Talos,ioos:station:wmo:42940:1,2024-04-02T01:03:00Z,28.4451,-89.0435,10.0,70.4,11144222
Talos,ioos:station:wmo:42940:1,2024-04-02T01:13:00Z,28.4451,-89.0435,10.0,69.9,11144222
Talos,ioos:station:wmo:42940:1,2024-04-02T01:23:00Z,28.4451,-89.0435,10.0,70.7,11144222
Talos,ioos:station:wmo:42940:1,2024-04-02T01:33:00Z,28.4451,-89.0435,10.0,70.3,11144222
Talos,ioos:station:wmo:42940:1,2024-04-02T01:43:00Z,28.4451,-89.0435,10.0,70.5,11144222
Talos,ioos:station:wmo:42940:1,2024-04-02T01:53:00Z,28.4451,-89.0435,10.0,70.5,11144222
Talos,ioos:station:wmo:42940:1,2024-04-02T02:03:00Z,28.4451,-89.0435,10.0,70.0,11144222
Talos,ioos:station:wmo:42940:1,2024-04-02T02:13:00Z,28.4451,-89.0435,10.0,70.4,11144222
Talos,ioos:station:wmo:42940:1,2024-04-02T02:23:00Z,28.4451,-89.0435,10.0,70.6,11144222
Talos,ioos:station:wmo:42940:1,2024-04-02T02:33:00Z,28.4451,-89.0435,10.0,70.6,11144222
Talos,ioos:station:wmo:42940:1,2024-04-02T02:43:00Z,28.4451,-89.0435,10.0,70.6,11144222
Talos,ioos:station:wmo:42940:1,2024-04-02T02:53:00Z,28.4451,-89.0435,10.0,70.7,11144222
Talos,ioos:station:wmo:42940:1,2024-04-02T03:03:00Z,28.4451,-89.0435,10.0,70.5,11144222
Talos,ioos:station:wmo:42940:1,2024-04-02T03:13:00Z,28.4451,-89.0435,10.0,70.1,11144222
Talos,ioos:station:wmo:42940:1,2024-04-02T03:23:00Z,28.4451,-89.0435,10.0,70.6,11144222
Talos,ioos:station:wmo:42940:1,2024-04-02T03:33:00Z,28.4451,-89.0435,10.0,70.7,11144222
Talos,ioos:station:wmo:42940:1,2024-04-02T03:43:00Z,28.4451,-89.0435,10.0,70.2,11144222
Talos,ioos:station:wmo:42940:1,2024-04-02T03:53:00Z,28.4451,-89.0435,10.0,70.0,11144222
Talos,ioos:station:wmo:42940:1,2024-04-02T04:03:00Z,28.4451,-89.0435,10.0,70.4,11144222
Talos,ioos:station:wmo:42940:1,2024-04-02T04:13:00Z,28.4451,-89.0435,10.0,70.5,11144222
Talos,ioos:station:wmo:42940:1,2024-04-02T04:23:00Z,28.4451,-89.0435,10.0,70.3,11144222
Talos,ioos:station:wmo:42940:1,2024-04-02T04:33:00Z,28.4451,-89.0435,10.0,70.0,11144222
Talos,ioos:station:wmo:42940:1,2024-04-02T04:43:00Z,28.4451,-89.0435,10.0,70.4,11144222
Talos,ioos:station:wmo:42940:1,2024-04-02T04:53:00Z,28.4451,-89.0435,10.0,70.7,11144222
Talos,ioos:station:wmo:42940:1,2024-04-02T05:03:00Z,28.4451,-89.0435,10.0,69.8,11144222
Talos,ioos:station:wmo:42940:1,2024-04-02T05:13:00Z,28.4451,-89.0435,10.0,69.9,11144222
Talos,ioos:station:wmo:42940:1,2024-04-02T05:23:00Z,28.4451,-89.0435,10.0,70.1,11144222
Talos,ioos:station:wmo:42940:1,2024-04-02T05:33:00Z,28.4451,-89.0435,10.0,70.5,11144222
Talos,ioos:station:wmo:42940:1,2024-04-02T05:43:00Z,28.4451,-89.0435,10.0,70.1,11144222
Talos,ioos:station:wmo:42940:1,2024-04-02T05:53:00Z,28.4451,-89.0435,10.0,70.5,11144222
Talos,ioos:station:wmo:42940:1,2024-04-02T06:03:00Z,28.4451,-89.0435,10.0,70.4,11144222
Talos,ioos:station:wmo:42940:1,2024-04-02T06:13:00Z,28.4451,-89.0435,10.0,70.7,11144222
Talos,ioos:station:wmo:42940:1,2024-04-02T06:23:00Z,28.4451,-89.0435,10.0,70.4,11144222
Talos,ioos:station:wmo:42940:1,2024-04-02T06:33:00Z,28.4451,-89.0435,10.0,70.4,11144222
Talos,ioos:station:wmo:42940:1,2024-04-02T06:43:00Z,28.4451,-89.0435,10.0,70.1,11144222
Talos,ioos:station:wmo:42940:1,2024-04-02T06:53:00Z,28.4451,-89.0435,10.0,70.4,11144222
Talos,ioos:station:wmo:42940:1,2024-04-02T07:03:00Z,28.4451,-89.0435,10.0,70.7,11144222
Talos,ioos:station:wmo:42940:1,2024-04-02T07:13:00Z,28.4451,-89.0435,10.0,70.3,11144222
Talos,ioos:station:wmo:42940:1,2024-04-02T07:23:00Z,28.4451,-89.0435,10.0,70.5,11144222
Talos,ioos:station:wmo:42940:1,2024-04-02T07:33:00Z,28.4451,-89.0435,10.0,70.9,11144222
Talos,ioos:station:wmo:42940:1,2024-04-02T07:43:00Z,28.4451,-89.0435,10.0,69.9,11144222
Talos,ioos:station:wmo:42940:1,2024-04-02T07:53:00Z,28.4451,-89.0435,10.0,70.7,11144222
Talos,ioos:station:wmo:42940:1,2024-04-02T08:03:00Z,28.4451,-89.0435,10.0,70.6,11144222
Talos,ioos:station:wmo:42940:1,2024-04-02T08:13:00Z,28.4451,-89.0435,10.0,69.9,11144222
Talos,ioos:station:wmo:42940:1,2024-04-02T08:23:00Z,28.4451,-89.0435,10.0,67.3,11144222
Talos,ioos:station:wmo:42940:1,2024-04-02T08:33:00Z,28.4451,-89.0435,10.0,67.1,11144222
Talos,ioos:station:wmo:42940:1,2024-04-02T08:43:00Z,28.4451,-89.0435,10.0,66.3,11144222
Talos,ioos:station:wmo:42940:1,2024-04-02T08:53:00Z,28.4451,-89.0435,10.0,65.1,11144222
Talos,ioos:station:wmo:42940:1,2024-04-02T09:03:00Z,28.4451,-89.0435,10.0,65.4,11144222
Talos,ioos:station:wmo:42940:1,2024-04-02T09:13:00Z,28.4451,-89.0435,10.0,62.7,11144222
Talos,ioos:station:wmo:42940:1,2024-04-02T09:23:00Z,28.4451,-89.0435,10.0,66.5,11144222
Talos,ioos:station:wmo:42940:1,2024-04-02T09:33:00Z,28.4451,-89.0435,10.0,63.8,11144222
Talos,ioos:station:wmo:42940:1,2024-04-02T09:43:00Z,28.4451,-89.0435,10.0,63.8,11144222
Talos,ioos:station:wmo:42940:1,2024-04-02T09:53:00Z,28.4451,-89.0435,10.0,63.9,11144222
Talos,ioos:station:wmo:42940:1,2024-04-02T10:03:00Z,28.4451,-89.0435,10.0,63.0,11144222
Talos,ioos:station:wmo:42940:1,2024-04-02T10:13:00Z,28.4451,-89.0435,10.0,64.0,11144222
Talos,ioos:station:wmo:42940:1,2024-04-02T10:23:00Z,28.4451,-89.0435,10.0,63.6,11144222
Talos,ioos:station:wmo:42940:1,2024-04-02T10:33:00Z,28.4451,-89.0435,10.0,63.5,11144222
Talos,ioos:station:wmo:42940:1,2024-04-02T10:43:00Z,28.4451,-89.0435,10.0,63.6,11144222
Talos,ioos:station:wmo:42940:1,2024-04-02T10:53:00Z,28.4451,-89.0435,10.0,63.9,11144222
Talos,ioos:station:wmo:42940:1,2024-04-02T11:03:00Z,28.4451,-89.0435,10.0,64.5,11144222
Talos,ioos:station:wmo:42940:1,2024-04-02T11:13:00Z,28.4451,-89.0435,10.0,64.7,11144222
Talos,ioos:station:wmo:42940:1,2024-04-02T11:23:00Z,28.4451,-89.0435,10.0,66.8,11144222
Talos,ioos:station:wmo:42940:1,2024-04-02T11:33:00Z,28.4451,-89.0435,10.0,65.8,11144222
Talos,ioos:station:wmo:42940:1,2024-04-02T11:43:00Z,28.4451,-89.0435,10.0,66.4,11144222
Talos,ioos:station:wmo:42940:1,2024-04-02T11:53:00Z,28.4451,-89.0435,10.0,65.5,11144222
Talos,ioos:station:wmo:42940:1,2024-04-02T12:03:00Z,28.4451,-89.0435,10.0,66.1,11144222
Talos,ioos:station:wmo:42940:1,2024-04-02T12:13:00Z,28.4451,-89.0435,10.0,66.3,11144222
Talos,ioos:station:wmo:42940:1,2024-04-02T12:23:00Z,28.4451,-89.0435,10.0,66.0,11144222
Talos,ioos:station:wmo:42940:1,2024-04-02T12:33:00Z,28.4451,-89.0435,10.0,66.1,11144222
Talos,ioos:station:wmo:42940:1,2024-04-02T12:43:00Z,28.4451,-89.0435,10.0,65.4,11144222
Talos,ioos:station:wmo:42940:1,2024-04-02T12:53:00Z,28.4451,-89.0435,10.0,66.0,11144222
Talos,ioos:station:wmo:42940:1,2024-04-02T13:03:00Z,28.4451,-89.0435,10.0,65.0,11144222
Talos,ioos:station:wmo:42940:1,2024-04-02T13:13:00Z,28.4451,-89.0435,10.0,65.8,11144222
Talos,ioos:station:wmo:42940:1,2024-04-02T13:23:00Z,28.4451,-89.0435,10.0,66.1,11144222
Talos,ioos:station:wmo:42940:1,2024-04-02T13:33:00Z,28.4451,-89.0435,10.0,65.8,11144222
Talos,ioos:station:wmo:42940:1,2024-04-02T13:43:00Z,28.4451,-89.0435,10.0,63.5,11144222
Talos,ioos:station:wmo:42940:1,2024-04-02T13:53:00Z,28.4451,-89.0435,10.0,65.2,11144222
Talos,ioos:station:wmo:42940:1,2024-04-02T14:03:00Z,28.4451,-89.0435,10.0,65.1,11144222
Talos,ioos:station:wmo:42940:1,2024-04-02T14:13:00Z,28.4451,-89.0435,10.0,65.5,11144222
Talos,ioos:station:wmo:42940:1,2024-04-02T14:23:00Z,28.4451,-89.0435,10.0,65.9,11144222
Talos,ioos:station:wmo:42940:1,2024-04-02T14:33:00Z,28.4451,-89.0435,10.0,65.4,11144222
Talos,ioos:station:wmo:42940:1,2024-04-02T14:43:00Z,28.4451,-89.0435,10.0,65.5,11144222
Talos,ioos:station:wmo:42940:1,2024-04-02T14:53:00Z,28.4451,-89.0435,10.0,66.0,11144222
Talos,ioos:station:wmo:42940:1,2024-04-02T15:03:00Z,28.4451,-89.0435,10.0,65.9,11144222
Talos,ioos:station:wmo:42940:1,2024-04-02T15:13:00Z,28.4451,-89.0435,10.0,65.6,11144222
Talos,ioos:station:wmo:42940:1,2024-04-02T15:23:00Z,28.4451,-89.0435,10.0,65.5,11144222
Talos,ioos:station:wmo:42940:1,2024-04-02T15:33:00Z,28.4451,-89.0435,10.0,65.5,11144222
Talos,ioos:station:wmo:42940:1,2024-04-02T15:43:00Z,28.4451,-89.0435,10.0,65.9,11144222
Talos,ioos:station:wmo:42940:1,2024-04-02T15:53:00Z,28.4451,-89.0435,10.0,66.3,11144222
Talos,ioos:station:wmo:42940:1,2024-04-02T16:03:00Z,28.4451,-89.0435,10.0,65.8,11144222
Talos,ioos:station:wmo:42940:1,2024-04-02T16:13:00Z,28.4451,-89.0435,10.0,66.0,11144222
Talos,ioos:station:wmo:42940:1,2024-04-02T16:23:00Z,28.4451,-89.0435,10.0,65.9,11144222
Talos,ioos:station:wmo:42940:1,2024-04-02T16:33:00Z,28.4451,-89.0435,10.0,63.0,11144222
Talos,ioos:station:wmo:42940:1,2024-04-02T16:43:00Z,28.4451,-89.0435,10.0,66.0,11144222
Talos,ioos:station:wmo:42940:1,2024-04-02T16:53:00Z,28.4451,-89.0435,10.0,65.5,11144222
Talos,ioos:station:wmo:42940:1,2024-04-02T17:03:00Z,28.4451,-89.0435,10.0,64.7,11144222
Talos,ioos:station:wmo:42940:1,2024-04-02T17:13:00Z,28.4451,-89.0435,10.0,65.1,11144222
Talos,ioos:station:wmo:42940:1,2024-04-02T17:23:00Z,28.4451,-89.0435,10.0,65.8,11144222
Talos,ioos:station:wmo:42940:1,2024-04-02T17:33:00Z,28.4451,-89.0435,10.0,65.9,11144222
Talos,ioos:station:wmo:42940:1,2024-04-02T17:43:00Z,28.4451,-89.0435,10.0,65.9,11144222
Talos,ioos:station:wmo:42940:1,2024-04-02T17:53:00Z,28.4451,-89.0435,10.0,65.8,11144222
Talos,ioos:station:wmo:42940:1,2024-04-02T18:03:00Z,28.4451,-89.0435,10.0,65.8,11144222
Talos,ioos:station:wmo:42940:1,2024-04-02T18:13:00Z,28.4451,-89.0435,10.0,66.1,11144222
Talos,ioos:station:wmo:42940:1,2024-04-02T18:23:00Z,28.4451,-89.0435,10.0,65.6,11144222
Talos,ioos:station:wmo:42940:1,2024-04-02T18:33:00Z,28.4451,-89.0435,10.0,64.3,11144222
Talos,ioos:station:wmo:42940:1,2024-04-02T18:43:00Z,28.4451,-89.0435,10.0,65.3,11144222
Talos,ioos:station:wmo:42940:1,2024-04-02T18:53:00Z,28.4451,-89.0435,10.0,64.9,11144222
Talos,ioos:station:wmo:42940:1,2024-04-02T19:03:00Z,28.4451,-89.0435,10.0,64.6,11144222
Talos,ioos:station:wmo:42940:1,2024-04-02T19:13:00Z,28.4451,-89.0435,10.0,65.8,11144222
Talos,ioos:station:wmo:42940:1,2024-04-02T19:23:00Z,28.4451,-89.0435,10.0,66.1,11144222
Talos,ioos:station:wmo:42940:1,2024-04-02T19:33:00Z,28.4451,-89.0435,10.0,65.6,11144222
Talos,ioos:station:wmo:42940:1,2024-04-02T19:43:00Z,28.4451,-89.0435,10.0,67.2,11144222
Talos,ioos:station:wmo:42940:1,2024-04-02T19:53:00Z,28.4451,-89.0435,10.0,64.8,11144222
Talos,ioos:station:wmo:42940:1,2024-04-02T20:03:00Z,28.4451,-89.0435,10.0,65.4,11144222
Talos,ioos:station:wmo:42940:1,2024-04-02T20:13:00Z,28.4451,-89.0435,10.0,66.0,11144222
Talos,ioos:station:wmo:42940:1,2024-04-02T20:23:00Z,28.4451,-89.0435,10.0,64.9,11144222
Talos,ioos:station:wmo:42940:1,2024-04-02T20:33:00Z,28.4451,-89.0435,10.0,66.1,11144222